Tiempo cada hora Munayshy

Hoy, 25 Octubre, Domingo

Tiempo Temperatura Precipitaciones Viento Presión Humedad
00:00 +13°C° 0 mm 4 mps 752 mmHg 92%
01:00 +13°C° 0 mm 4 mps 752 mmHg 92%
02:00 +13°C° 0 mm 4 mps 752 mmHg 92%
03:00 +12°C° 0 mm 4 mps 752 mmHg 91%
04:00 +12°C° 0 mm 4 mps 752 mmHg 91%
05:00 +12°C° 0 mm 4 mps 752 mmHg 90%
06:00 +12°C° 0 mm 4 mps 751 mmHg 89%
07:00 +14°C° 0 mm 5 mps 752 mmHg 78%
08:00 +16°C° 0 mm 5 mps 752 mmHg 66%
09:00 +19°C° 0 mm 6 mps 752 mmHg 55%
10:00 +20°C° 0 mm 6 mps 752 mmHg 52%
11:00 +21°C° 0 mm 6 mps 751 mmHg 48%
12:00 +22°C° 0 mm 6 mps 751 mmHg 44%
13:00 +22°C° 0 mm 5 mps 751 mmHg 45%
14:00 +22°C° 0 mm 5 mps 751 mmHg 46%
15:00 +21°C° 0 mm 5 mps 751 mmHg 46%
16:00 +20°C° 0 mm 4 mps 750 mmHg 56%
17:00 +18°C° 0 mm 3 mps 750 mmHg 65%
18:00 +16°C° 0 mm 2 mps 750 mmHg 74%
19:00 +15°C° 0 mm 2 mps 750 mmHg 77%
20:00 +15°C° 0 mm 2 mps 750 mmHg 80%
21:00 +15°C° 0 mm 2 mps 750 mmHg 82%
22:00 +14°C° 0 mm 1 mps 750 mmHg 85%
23:00 +13°C° 0 mm 1 mps 750 mmHg 88%

Mañana, 26 Octubre, Lunes

Tiempo Temperatura Precipitaciones Viento Presión Humedad
00:00 +13°C° 0 mm 1 mps 750 mmHg 91%
01:00 +13°C° 0 mm 1 mps 750 mmHg 92%
02:00 +12°C° 0 mm 1 mps 750 mmHg 93%
03:00 +12°C° 0 mm 1 mps 750 mmHg 94%
04:00 +12°C° 0 mm 1 mps 751 mmHg 94%
05:00 +13°C° 0 mm 2 mps 751 mmHg 93%
06:00 +13°C° 0 mm 2 mps 751 mmHg 92%
07:00 +15°C° 0 mm 2 mps 751 mmHg 81%
08:00 +17°C° 0 mm 3 mps 752 mmHg 70%
09:00 +19°C° 0 mm 3 mps 752 mmHg 59%
10:00 +20°C° 0 mm 3 mps 752 mmHg 54%
11:00 +21°C° 0 mm 3 mps 752 mmHg 49%
12:00 +22°C° 0 mm 3 mps 752 mmHg 44%
13:00 +22°C° 0 mm 3 mps 752 mmHg 42%
14:00 +22°C° 0 mm 4 mps 752 mmHg 40%
15:00 +22°C° 0 mm 4 mps 752 mmHg 39%
16:00 +20°C° 0 mm 4 mps 752 mmHg 41%
17:00 +18°C° 0 mm 4 mps 752 mmHg 44%
18:00 +15°C° 0 mm 5 mps 752 mmHg 47%
19:00 +14°C° 0 mm 5 mps 752 mmHg 49%
20:00 +13°C° 0 mm 5 mps 753 mmHg 51%
21:00 +12°C° 0 mm 4 mps 753 mmHg 52%
22:00 +10°C° 0 mm 5 mps 753 mmHg 54%
23:00 +10°C° 0 mm 5 mps 753 mmHg 55%

Pasado mañana, 27 Octubre, Martes

Tiempo Temperatura Precipitaciones Viento Presión Humedad
00:00 +9°C° 0 mm 5 mps 753 mmHg 56%
01:00 +8°C° 0 mm 5 mps 753 mmHg 60%
02:00 +8°C° 0 mm 5 mps 753 mmHg 64%
03:00 +7°C° 0 mm 5 mps 753 mmHg 68%
04:00 +7°C° 0 mm 5 mps 753 mmHg 70%
05:00 +6°C° 0 mm 5 mps 753 mmHg 72%
06:00 +6°C° 0 mm 5 mps 754 mmHg 74%
07:00 +7°C° 0 mm 6 mps 754 mmHg 63%
08:00 +9°C° 0 mm 7 mps 755 mmHg 53%
09:00 +10°C° 0 mm 7 mps 755 mmHg 43%
10:00 +11°C° 0 mm 7 mps 755 mmHg 39%
11:00 +13°C° 0 mm 6 mps 755 mmHg 35%
12:00 +14°C° 0 mm 6 mps 756 mmHg 31%
13:00 +14°C° 0 mm 6 mps 756 mmHg 31%
14:00 +13°C° 0 mm 6 mps 756 mmHg 31%
15:00 +13°C° 0 mm 6 mps 756 mmHg 32%
16:00 +10°C° 0 mm 6 mps 756 mmHg 34%
17:00 +9°C° 0 mm 6 mps 757 mmHg 36%
18:00 +8°C° 0 mm 5 mps 757 mmHg 38%
19:00 +7°C° 0 mm 6 mps 757 mmHg 38%
20:00 +7°C° 0 mm 6 mps 758 mmHg 37%
21:00 +5°C° 0 mm 6 mps 758 mmHg 36%
22:00 +5°C° 0 mm 6 mps 758 mmHg 35%
23:00 +4°C° 0 mm 6 mps 758 mmHg 35%

28 Octubre, Miércoles

Tiempo Temperatura Precipitaciones Viento Presión Humedad
00:00 +4°C° 0 mm 6 mps 759 mmHg 34%
01:00 +3°C° 0 mm 6 mps 759 mmHg 34%
02:00 +3°C° 0 mm 5 mps 759 mmHg 34%
03:00 +2°C° 0 mm 5 mps 759 mmHg 33%
04:00 +2°C° 0 mm 5 mps 759 mmHg 34%
05:00 +1°C° 0 mm 5 mps 759 mmHg 34%
06:00 +1°C° 0 mm 5 mps 760 mmHg 34%
07:00 +3°C° 0 mm 6 mps 760 mmHg 31%
08:00 +4°C° 0 mm 6 mps 760 mmHg 27%
09:00 +5°C° 0 mm 6 mps 761 mmHg 24%
10:00 +8°C° 0 mm 6 mps 761 mmHg 21%
11:00 +10°C° 0 mm 6 mps 761 mmHg 18%
12:00 +11°C° 0 mm 6 mps 761 mmHg 15%
13:00 +11°C° 0 mm 6 mps 761 mmHg 15%
14:00 +13°C° 0 mm 6 mps 761 mmHg 15%
15:00 +13°C° 0 mm 6 mps 761 mmHg 16%
16:00 +10°C° 0 mm 5 mps 761 mmHg 19%
17:00 +8°C° 0 mm 5 mps 761 mmHg 23%
18:00 +7°C° 0 mm 4 mps 761 mmHg 26%
19:00 +6°C° 0 mm 5 mps 761 mmHg 29%
20:00 +6°C° 0 mm 5 mps 761 mmHg 31%
21:00 +5°C° 0 mm 5 mps 761 mmHg 34%
22:00 +4°C° 0 mm 6 mps 761 mmHg 36%
23:00 +3°C° 0 mm 6 mps 761 mmHg 38%

29 Octubre, Jueves

Tiempo Temperatura Precipitaciones Viento Presión Humedad
00:00 +3°C° 0 mm 6 mps 761 mmHg 40%
01:00 +3°C° 0 mm 6 mps 761 mmHg 42%
02:00 +2°C° 0 mm 6 mps 761 mmHg 44%
03:00 +2°C° 0 mm 6 mps 761 mmHg 45%
04:00 +2°C° 0 mm 6 mps 761 mmHg 48%
05:00 0°C° 0 mm 7 mps 761 mmHg 52%
06:00 0°C° 0 mm 7 mps 761 mmHg 55%
07:00 +2°C° 0 mm 8 mps 762 mmHg 52%
08:00 +5°C° 0 mm 9 mps 762 mmHg 49%
09:00 +7°C° 0 mm 9 mps 762 mmHg 46%
10:00 +8°C° 0 mm 9 mps 762 mmHg 41%
11:00 +11°C° 0 mm 10 mps 762 mmHg 36%
12:00 +12°C° 0 mm 10 mps 761 mmHg 31%
13:00 +12°C° 0 mm 10 mps 761 mmHg 30%
14:00 +12°C° 0 mm 10 mps 761 mmHg 29%
15:00 +13°C° 0 mm 10 mps 760 mmHg 29%
16:00 +11°C° 0 mm 10 mps 760 mmHg 32%
17:00 +9°C° 0 mm 10 mps 760 mmHg 34%
18:00 +8°C° 0 mm 10 mps 761 mmHg 37%
19:00 +7°C° 0 mm 10 mps 761 mmHg 37%
20:00 +7°C° 0 mm 10 mps 761 mmHg 37%
21:00 +6°C° 0 mm 10 mps 761 mmHg 37%
22:00 +6°C° 0 mm 10 mps 761 mmHg 36%
23:00 +5°C° 0 mm 10 mps 760 mmHg 35%

30 Octubre, Viernes

Tiempo Temperatura Precipitaciones Viento Presión Humedad
00:00 +4°C° 0 mm 11 mps 760 mmHg 35%
01:00 +3°C° 0 mm 11 mps 760 mmHg 34%
02:00 +3°C° 0 mm 11 mps 760 mmHg 33%
03:00 +2°C° 0 mm 11 mps 760 mmHg 32%
04:00 +2°C° 0 mm 11 mps 760 mmHg 32%
05:00 +1°C° 0 mm 11 mps 759 mmHg 32%
06:00 +1°C° 0 mm 11 mps 759 mmHg 31%
07:00 +2°C° 0 mm 12 mps 759 mmHg 27%
08:00 +4°C° 0 mm 12 mps 759 mmHg 23%
09:00 +7°C° 0 mm 13 mps 759 mmHg 19%
10:00 +8°C° 0 mm 13 mps 759 mmHg 17%
11:00 +10°C° 0 mm 13 mps 758 mmHg 14%
12:00 +12°C° 0 mm 13 mps 758 mmHg 11%
13:00 +13°C° 0 mm 12 mps 758 mmHg 10%
14:00 +13°C° 0 mm 12 mps 757 mmHg 9%
15:00 +13°C° 0 mm 11 mps 757 mmHg 9%
16:00 +12°C° 0 mm 11 mps 757 mmHg 9%
17:00 +9°C° 0 mm 11 mps 757 mmHg 9%
18:00 +8°C° 0 mm 11 mps 757 mmHg 9%
19:00 +7°C° 0 mm 11 mps 757 mmHg 10%
20:00 +6°C° 0 mm 10 mps 757 mmHg 12%
21:00 +6°C° 0 mm 10 mps 757 mmHg 13%
22:00 +5°C° 0 mm 10 mps 757 mmHg 15%
23:00 +5°C° 0 mm 10 mps 756 mmHg 16%
Mostrar más

Necesitamos Su Consentimiento

Meteoprog y nuestros Proveedores de Servicios pueden almacenar y acceder a sus datos personales como cookies, identificadores de dispositivo u otras tecnologías similares de su dispositivo y procesar dichos datos para personalizar contenido y anuncios, además de ofrecer funciones de redes sociales y analizar el tráfico.

  • Almacenar y/o acceder a información en su dispositivo

    Se puede almacenar o acceder a cookies, identificadores de dispositivo u otra información de su dispositivo para los fines anteriormente indicados.

  • Anuncios y contenido personalizados, medición de anuncios y contenido, percepciones del público, y desarrollo de productos

    Los anuncios y el contenido pueden personalizarse en base a su perfil. Se pueden añadir más datos para personalizar mejor los anuncios y contenidos. Se puede medir el rendimiento de los anuncios y contenidos. Se puede obtener la percepción sobre el público que ha visto los anuncios y contenidos. Dichos datos pueden usarse para desarrollar o mejorar la experiencia del usuario, sistemas y software.

Al hacer clic en ‘Estoy De Acuerdo’ usted permitirá el uso de las cookies, identificadores de dispositivo, balizas web u otras tecnologías similares indicadas. Su configuración puede cambiarse desde el navegador de su dispositivo.

Para ciertos fines, los intereses legítimos pueden ser considerados por encima del consentimiento. Puede leer más sobre ello en nuestra Política de Privacidad y Cookies.